This is the latest recevied weather packets stored in our database for station/object WB3IGR. If no packets are shown the sender has not sent any weather packets the latest 1 day(s).
| Time | Temp. | Humidity | Pressure | Rain* | Wind** | Luminosity | Snow |
|---|---|---|---|---|---|---|---|
| 1778018904 | 26.11° C | 39% | 1009.5 hPa | 0 mm | 2.24 m/s, 248° | 105 W/m² | - |
| 1778018601 | 26.67° C | 38% | 1009.6 hPa | 0 mm | 2.24 m/s, 241° | 111 W/m² | - |
| 1778018299 | 26.67° C | 38% | 1009.4 hPa | 0 mm | 4.02 m/s, 272° | 150 W/m² | - |
| 1778017997 | 27.78° C | 39% | 1009.4 hPa | 0 mm | 0.89 m/s, 214° | 220 W/m² | - |
| 1778017694 | 27.22° C | 37% | 1009.5 hPa | 0 mm | 2.68 m/s, 308° | 240 W/m² | - |
| 1778017392 | 27.22° C | 37% | 1009.2 hPa | 0 mm | 3.13 m/s, 240° | 177 W/m² | - |
| 1778017088 | 27.78° C | 37% | 1009.3 hPa | 0 mm | 4.02 m/s, 311° | 281 W/m² | - |
| 1778016786 | 27.22° C | 37% | 1009.3 hPa | 0 mm | 1.79 m/s, 341° | 317 W/m² | - |
| 1778016482 | 27.22° C | 36% | 1009.3 hPa | 0 mm | 3.58 m/s, 276° | 370 W/m² | - |
| 1778016179 | 27.22° C | 36% | 1009.2 hPa | 0 mm | 3.58 m/s, 256° | 419 W/m² | - |
| 1778015875 | 27.22° C | 36% | 1009.3 hPa | 0 mm | 5.36 m/s, 248° | 331 W/m² | - |
| 1778015573 | 27.78° C | 36% | 1009.1 hPa | 0 mm | 3.13 m/s, 229° | 231 W/m² | - |
| 1778015269 | 27.78° C | 36% | 1009.2 hPa | 0 mm | 4.47 m/s, 320° | 422 W/m² | - |
| 1778014966 | 27.22° C | 38% | 1009.2 hPa | 0 mm | 1.79 m/s, 240° | 371 W/m² | - |
| 1778014663 | 27.78° C | 36% | 1009.3 hPa | 0 mm | 2.24 m/s, 221° | 458 W/m² | - |
| 1778014362 | 27.78° C | 37% | 1009.3 hPa | 0 mm | 3.13 m/s, 239° | 463 W/m² | - |
| 1778014058 | 27.78° C | 36% | 1009.1 hPa | 0 mm | 4.47 m/s, 244° | 512 W/m² | - |
| 1778013756 | 27.78° C | 38% | 1009.1 hPa | 0 mm | 0.89 m/s, 302° | 449 W/m² | - |
| 1778013453 | 27.78° C | 37% | 1009.2 hPa | 0 mm | 2.68 m/s, 217° | 372 W/m² | - |
| 1778013150 | 27.22° C | 37% | 1009.2 hPa | 0 mm | 4.47 m/s, 321° | 466 W/m² | - |
| 1778012845 | 27.78° C | 38% | 1009.4 hPa | 0 mm | 3.58 m/s, 233° | 535 W/m² | - |
| 1778012542 | 27.78° C | 37% | 1009.3 hPa | 0 mm | 2.68 m/s, 296° | 474 W/m² | - |
| 1778012238 | 28.33° C | 36% | 1009.3 hPa | 0 mm | 2.24 m/s, 283° | 469 W/m² | - |
| 1778011936 | 27.78° C | 37% | 1009.4 hPa | 0 mm | 4.02 m/s, 314° | 506 W/m² | - |
| 1778011634 | 27.78° C | 37% | 1009.5 hPa | 0 mm | 6.26 m/s, 228° | 553 W/m² | - |
* Rain latest hour (hover to see other rain measurements)
** Current wind speed in m/s (hover to see current wind gust speed)